P/2014 R5 ( Lemmon-PanSTARRS ) 2022

Japanese version
Home page
Updated on November 1, 2021

---------------------------------------------------------------------

* Profile

* Orbital Elements

Epoch 2022 Aug. 9.0 TT = JDT 2459800.5
T 2022 Aug. 18.84677 TT                                 MPCW
q   2.3779843            (2000.0)            P               Q
n   0.12044662     Peri.  213.70482     +0.94119100     +0.33753031
a   4.0607505      Node   126.56136     -0.30565045     +0.86980343
e   0.4143978      Incl.    1.08842     -0.14400451     +0.35988232
P   8.18
From 100 observations 2014 Sept. 7-Nov. 18, mean residual 0".5.

* Magnitudes Graph

        m1 = 14.0 + 5 log d + 10.0 log r

---------------------------------------------------------------------

The orbital elements are published on M.P.E.C. 2014-Y44.
The magnitudes graphs are made with Comet for Windows.

---------------------------------------------------------------------

Copyright(C) Seiichi Yoshida (comet@aerith.net). All rights reserved.